Overview Statistics Trail Chart Weather Telemetry Raw packets
 

This is the latest recevied weather packets stored in our database for station/object HS5XHC-1. If no packets are shown the sender has not sent any weather packets the latest 10 day(s).

<< 2 3 4 5 6 7 8 >>
Time Temp. Humidity Pressure Rain* Wind** Luminosity Snow
1777825144 27.22° C 58% 967 hPa - - 0 W/m² -
1777824520 27.22° C 58% 967 hPa - - 0 W/m² -
1777823895 27.22° C 58% 967 hPa - - 0 W/m² -
1777823271 27.22° C 58% 967 hPa - - 0 W/m² -
1777822647 27.22° C 58% 967 hPa - - 0 W/m² -
1777822023 27.22° C 58% 967 hPa - - 0 W/m² -
1777821399 27.22° C 57% 967 hPa - - 0 W/m² -
1777820776 27.22° C 56% 967 hPa - - 0 W/m² -
1777820153 28.33° C 52% 967 hPa - - 0 W/m² -
1777819527 28.89° C 51% 967 hPa - - 0 W/m² -
1777818903 30° C 48% 967 hPa - - 0 W/m² -
1777818279 30° C 47% 966 hPa - - 0 W/m² -
1777817656 30.56° C 46% 966 hPa - - 0 W/m² -
1777817032 29.44° C 48% 966 hPa - - 0 W/m² -
1777816408 30.56° C 45% 966 hPa - - 0 W/m² -
1777815783 30° C 46% 965 hPa - - 0 W/m² -
1777815160 30° C 44% 965 hPa - - 0 W/m² -
1777814536 30° C 46% 965 hPa - - 0 W/m² -
1777813912 30° C 45% 965 hPa - - 0 W/m² -
1777813288 30.56° C 43% 965 hPa - - 0 W/m² -
1777812664 30.56° C 41% 965 hPa - - 0 W/m² -
1777812040 31.11° C 41% 964 hPa - - 0 W/m² -
1777811416 30.56° C 41% 964 hPa - - 0 W/m² -
1777810792 30° C 42% 964 hPa - - 0 W/m² -
1777810168 30° C 42% 964 hPa - - 0 W/m² -

* Rain since midnight (hover to see other rain measurements)
** Current wind speed in m/s (hover to see current wind gust speed)